Location: Baia Mare
(47.6567°N, 23.5850°E)
Time: 18:45:56

ISS - Pass Details

Date: 06 March 2018
Orbit: 403 x 406 km, 51.6° (Epoch: 20 March)

Event Time Altitude Azimuth Distance (km) Brightness Sun altitude
Exits shadow 05:17:10 56° 280° (W) 486 -3.8 -17.6°
Maximum altitude 05:17:41 72° 339° (NNW) 431 -3.8 -17.5°
Drops below altitude 10° 05:20:58 10° 65° (ENE) 1,466 0.2 -17.0°
Sets 05:23:04 0° 67° (ENE) 2,328 1.6 -16.6°
